Ridgedale, MO

11:27 PM CST on December 09, 2016 (GMT -0600)
Branson

Weather History for KBBG - December, 2012

Change the Weather History Date:

Wednesday, December 12, 2012

  Actual Average (KHRO) Record (KHRO)
Temperature  
Mean Temperature 37 °F -  
Max Temperature 50 °F 47 °F 75 °F (1929)
Min Temperature 24 °F 31 °F 0 °F (1962)
Degree Days  
Heating Degree Days 28    
Moisture  
Dew Point 11 °F    
Average Humidity 37    
Maximum Humidity 69    
Minimum Humidity 20    
Precipitation  
Precipitation 0.00 in - - ()
Sea Level Pressure  
Sea Level Pressure 30.24 in    
Wind  
Wind Speed 5 mph (South)    
Max Wind Speed 10 mph    
Max Gust Speed -    
Visibility 10 miles    
Events      
Averages and records for this station are not official NWS values.
T = Trace of Precipitation, MM = Missing Value Source: NWS Daily Summary

Daily Weather History Graph

Daily Weather History Graph

Search for Another Location

Airport or City:

Trip Planner

Search our weather history database for the weather conditions in past years. The results will help you decide how hot, cold, wet, or windy it might be!

Date:

Astronomy

Dec. 12, 2012 Rise Set
Actual Time 7:15 AM CST 4:57 PM CST
Civil Twilight 6:47 AM CST 5:26 PM CST
Nautical Twilight 6:14 AM CST 5:58 PM CST
Astronomical Twilight 5:43 AM CST 6:30 PM CST
Moon 6:21 AM CST (12/12) 4:35 PM CST (12/12)
Length of Visible Light 10h 39m
Length of Day
9h 42m
Waning Crescent, 1% of the Moon is Illuminated
Dec 12
Waning Crescent
Dec 13
New
Dec 19
First Quarter
Dec 28
Full
Jan 4
Last Quarter

Hourly Weather History & Observations

Time (CST) Temp. Windchill Dew Point Humidity Pressure Visibility Wind Dir Wind Speed Gust Speed Precip Events Conditions
12:15 AM 32.0 °F 27.5 °F 10.4 °F 41% 30.22 in 10.0 mi SSW 4.6 mph - N/A   Clear
12:35 AM 32.0 °F 27.5 °F 8.6 °F 38% 30.21 in 10.0 mi SSW 4.6 mph - N/A   Clear
12:55 AM 32.0 °F 28.7 °F 8.6 °F 38% 30.21 in 10.0 mi SW 3.5 mph - N/A   Clear
1:15 AM 32.0 °F - 8.6 °F 38% 30.22 in 10.0 mi Calm Calm - N/A   Clear
1:35 AM 32.0 °F 28.7 °F 8.6 °F 38% 30.22 in 10.0 mi SSW 3.5 mph - N/A   Clear
1:55 AM 32.0 °F 28.7 °F 6.8 °F 35% 30.22 in 10.0 mi SW 3.5 mph - N/A   Clear
2:15 AM 32.0 °F 28.7 °F 6.8 °F 35% 30.22 in 10.0 mi SW 3.5 mph - N/A   Clear
2:35 AM 32.0 °F 27.5 °F 6.8 °F 35% 30.22 in 10.0 mi SW 4.6 mph - N/A   Clear
2:55 AM 32.0 °F 28.7 °F 6.8 °F 35% 30.22 in 10.0 mi SW 3.5 mph - N/A   Clear
3:15 AM 32.0 °F 28.7 °F 6.8 °F 35% 30.22 in 10.0 mi SW 3.5 mph - N/A   Clear
3:55 AM 32.0 °F 28.7 °F 6.8 °F 35% 30.21 in 10.0 mi SW 3.5 mph - N/A   Clear
4:15 AM 32.0 °F 28.7 °F 6.8 °F 35% 30.21 in 10.0 mi SW 3.5 mph - N/A   Clear
4:35 AM 32.0 °F 28.7 °F 6.8 °F 35% 30.22 in 10.0 mi SW 3.5 mph - N/A   Clear
4:55 AM 28.4 °F - 8.6 °F 43% 30.22 in 10.0 mi Calm Calm - N/A   Clear
5:35 AM 28.4 °F - 8.6 °F 43% 30.24 in 10.0 mi Calm Calm - N/A   Clear
6:45 AM 24.8 °F - 15.8 °F 69% 30.26 in 10.0 mi Calm Calm - N/A   Clear
7:45 AM 24.8 °F - 14.0 °F 64% 30.28 in 10.0 mi Calm Calm - N/A   Clear
8:45 AM 35.6 °F - 14.0 °F 41% 30.30 in 10.0 mi Calm Calm - N/A   Clear
9:51 AM 39.2 °F - 14.0 °F 36% 30.31 in 10.0 mi Calm Calm - N/A   Clear
10:46 AM 44.6 °F 40.7 °F 15.8 °F 31% 30.30 in 10.0 mi SE 6.9 mph - N/A   Clear
11:45 AM 46.4 °F 42.9 °F 14.0 °F 27% 30.29 in 10.0 mi SE 6.9 mph - N/A   Clear
1:45 PM 50.0 °F - 14.0 °F 24% 30.23 in 10.0 mi South 5.8 mph - N/A   Clear
2:45 PM 50.0 °F - 12.2 °F 22% 30.23 in 10.0 mi SE 8.1 mph - N/A   Clear
3:56 PM 50.0 °F - 10.4 °F 20% 30.24 in 10.0 mi SE 10.4 mph - N/A   Clear
4:48 PM 46.4 °F 42.9 °F 10.4 °F 23% 30.24 in 10.0 mi SSE 6.9 mph - N/A   Clear
5:45 PM 42.8 °F 38.0 °F 10.4 °F 27% 30.24 in 10.0 mi SSE 8.1 mph - N/A   Clear
6:45 PM 41.0 °F 35.8 °F 10.4 °F 29% 30.23 in 10.0 mi SSE 8.1 mph - N/A   Clear
7:45 PM 41.0 °F 35.2 °F 10.4 °F 29% 30.25 in 10.0 mi SSE 9.2 mph - N/A   Clear
8:15 PM 39.2 °F 33.0 °F 12.2 °F 33% 30.25 in 10.0 mi SSE 9.2 mph - N/A   Clear
8:35 PM 37.4 °F 30.8 °F 14.0 °F 38% 30.24 in 10.0 mi SE 9.2 mph - N/A   Clear
8:45 PM 37.4 °F 31.4 °F 14.0 °F 38% 30.25 in 10.0 mi SSE 8.1 mph - N/A   Clear
8:55 PM 37.4 °F 31.4 °F 14.0 °F 38% 30.25 in 10.0 mi SSE 8.1 mph - N/A   Clear
9:15 PM 37.4 °F 31.4 °F 14.0 °F 38% 30.25 in 10.0 mi SSE 8.1 mph - N/A   Clear
9:35 PM 37.4 °F 31.4 °F 14.0 °F 38% 30.25 in 10.0 mi SSE 8.1 mph - N/A   Clear
9:55 PM 37.4 °F 31.4 °F 15.8 °F 41% 30.26 in 10.0 mi SSE 8.1 mph - N/A   Clear
10:15 PM 37.4 °F 30.8 °F 14.0 °F 38% 30.25 in 10.0 mi SSE 9.2 mph - N/A   Clear
10:35 PM 37.4 °F 31.4 °F 14.0 °F 38% 30.25 in 10.0 mi SSE 8.1 mph - N/A   Clear
10:55 PM 35.6 °F 29.9 °F 15.8 °F 44% 30.25 in 10.0 mi SSE 6.9 mph - N/A   Clear
11:15 PM 35.6 °F 29.9 °F 15.8 °F 44% 30.25 in 10.0 mi SE 6.9 mph - N/A   Clear
11:35 PM 35.6 °F 29.2 °F 15.8 °F 44% 30.25 in 10.0 mi SE 8.1 mph - N/A   Clear
11:55 PM 35.6 °F 28.0 °F 15.8 °F 44% 30.25 in 10.0 mi SE 10.4 mph - N/A   Clear